TimeCDT,TemperatureF,Dew PointF,Humidity,Sea Level PressureIn,VisibilityMPH,Wind Direction,Wind SpeedMPH,Gust SpeedMPH,PrecipitationIn,Events,Conditions,WindDirDegrees,DateUTC
12:14 AM,39.2,26.6,61,30.18,10.0,SE,12.7,-,N/A,,Clear,130,2012-10-30 05:14:00
12:33 AM,39.2,26.6,61,30.19,10.0,SE,11.5,-,N/A,,Clear,130,2012-10-30 05:33:00
12:54 AM,37.4,26.6,65,30.19,10.0,SE,10.4,-,N/A,,Clear,130,2012-10-30 05:54:00
1:14 AM,37.4,28.4,70,30.19,10.0,SE,10.4,-,N/A,,Clear,130,2012-10-30 06:14:00
1:33 AM,39.2,26.6,61,30.18,10.0,SE,11.5,-,N/A,,Clear,130,2012-10-30 06:33:00
2:33 AM,37.4,28.4,70,30.17,10.0,SE,10.4,-,N/A,,Clear,130,2012-10-30 07:33:00
2:54 AM,37.4,28.4,70,30.17,10.0,SE,10.4,-,N/A,,Clear,130,2012-10-30 07:54:00
3:14 AM,37.4,28.4,70,30.17,10.0,SE,10.4,-,N/A,,Clear,130,2012-10-30 08:14:00
3:54 AM,37.4,28.4,70,30.16,10.0,SE,11.5,-,N/A,,Clear,130,2012-10-30 08:54:00
4:14 AM,37.4,28.4,70,30.16,10.0,SE,12.7,-,N/A,,Clear,130,2012-10-30 09:14:00
4:34 AM,37.4,28.4,70,30.16,10.0,SE,12.7,-,N/A,,Clear,130,2012-10-30 09:34:00
4:54 AM,37.4,28.4,70,30.16,10.0,SE,11.5,-,N/A,,Clear,130,2012-10-30 09:54:00
5:14 AM,35.6,28.4,75,30.16,10.0,SE,11.5,-,N/A,,Clear,130,2012-10-30 10:14:00
5:34 AM,35.6,28.4,75,30.16,10.0,SE,11.5,-,N/A,,Clear,130,2012-10-30 10:34:00
5:54 AM,37.4,28.4,70,30.16,10.0,SE,12.7,-,N/A,,Clear,130,2012-10-30 10:54:00
6:14 AM,37.4,28.4,70,30.17,10.0,SE,13.8,-,N/A,,Clear,130,2012-10-30 11:14:00
6:34 AM,37.4,28.4,70,30.17,10.0,SE,15.0,-,N/A,,Clear,130,2012-10-30 11:34:00
6:54 AM,37.4,28.4,70,30.16,10.0,SE,13.8,-,N/A,,Clear,130,2012-10-30 11:54:00
7:13 AM,37.4,28.4,70,30.16,10.0,SE,13.8,-,N/A,,Clear,130,2012-10-30 12:13:00
7:34 AM,37.4,28.4,70,30.16,10.0,SE,13.8,-,N/A,,Clear,130,2012-10-30 12:34:00
7:54 AM,37.4,28.4,70,30.15,10.0,SE,13.8,-,N/A,,Clear,130,2012-10-30 12:54:00
8:13 AM,37.4,28.4,70,30.15,10.0,SE,13.8,18.4,N/A,,Clear,130,2012-10-30 13:13:00
8:34 AM,37.4,28.4,70,30.15,10.0,SE,13.8,-,N/A,,Scattered Clouds,130,2012-10-30 13:34:00
8:54 AM,37.4,28.4,70,30.15,10.0,SE,15.0,-,N/A,,Scattered Clouds,130,2012-10-30 13:54:00
9:13 AM,37.4,28.4,70,30.16,10.0,SE,16.1,-,N/A,,Mostly Cloudy,130,2012-10-30 14:13:00
9:34 AM,39.2,30.2,70,30.17,10.0,SE,12.7,18.4,N/A,,Overcast,140,2012-10-30 14:34:00
9:53 AM,39.2,30.2,70,30.17,10.0,SE,11.5,-,N/A,,Overcast,140,2012-10-30 14:53:00
10:14 AM,39.2,30.2,70,30.17,10.0,SE,15.0,-,N/A,,Overcast,140,2012-10-30 15:14:00
10:34 AM,39.2,30.2,70,30.17,10.0,SE,12.7,-,N/A,,Overcast,140,2012-10-30 15:34:00
10:53 AM,41.0,30.2,65,30.17,10.0,SE,15.0,-,N/A,,Overcast,140,2012-10-30 15:53:00
11:14 AM,41.0,30.2,65,30.17,10.0,SE,16.1,-,N/A,,Overcast,140,2012-10-30 16:14:00
11:33 AM,42.8,30.2,61,30.16,10.0,SE,12.7,18.4,N/A,,Overcast,140,2012-10-30 16:33:00
11:54 AM,42.8,30.2,61,30.16,10.0,SSE,16.1,-,N/A,,Overcast,150,2012-10-30 16:54:00
12:14 PM,42.8,30.2,61,30.16,10.0,SSE,16.1,-,N/A,,Overcast,150,2012-10-30 17:14:00
12:33 PM,44.6,30.2,57,30.16,10.0,SSE,16.1,20.7,N/A,,Overcast,150,2012-10-30 17:33:00
12:54 PM,44.6,30.2,57,30.15,10.0,SSE,16.1,-,N/A,,Overcast,150,2012-10-30 17:54:00
1:14 PM,44.6,30.2,57,30.15,10.0,SSE,16.1,20.7,N/A,,Overcast,150,2012-10-30 18:14:00
1:33 PM,44.6,30.2,57,30.14,10.0,SSE,17.3,-,N/A,,Overcast,160,2012-10-30 18:33:00
1:54 PM,46.4,30.2,53,30.15,10.0,SSE,15.0,-,N/A,,Overcast,160,2012-10-30 18:54:00
2:14 PM,46.4,28.4,50,30.14,10.0,SSE,15.0,-,N/A,,Overcast,160,2012-10-30 19:14:00
2:33 PM,46.4,28.4,50,30.14,10.0,SSE,13.8,-,N/A,,Overcast,150,2012-10-30 19:33:00
2:54 PM,44.6,30.2,57,30.14,10.0,SE,15.0,-,N/A,,Overcast,140,2012-10-30 19:54:00
3:14 PM,46.4,28.4,50,30.14,10.0,SE,13.8,-,N/A,,Overcast,140,2012-10-30 20:14:00
3:33 PM,46.4,28.4,50,30.13,10.0,SSE,15.0,-,N/A,,Overcast,150,2012-10-30 20:33:00
3:54 PM,46.4,28.4,50,30.13,10.0,SSE,13.8,-,N/A,,Mostly Cloudy,150,2012-10-30 20:54:00
4:14 PM,46.4,28.4,50,30.12,10.0,SE,15.0,-,N/A,,Overcast,140,2012-10-30 21:14:00
4:33 PM,46.4,28.4,50,30.12,10.0,SSE,13.8,-,N/A,,Overcast,150,2012-10-30 21:33:00
4:54 PM,46.4,28.4,50,30.12,10.0,SE,11.5,-,N/A,,Overcast,140,2012-10-30 21:54:00
5:13 PM,46.4,26.6,46,30.12,10.0,SSE,11.5,-,N/A,,Overcast,160,2012-10-30 22:13:00
5:34 PM,46.4,30.2,53,30.12,10.0,SE,9.2,-,N/A,,Overcast,130,2012-10-30 22:34:00
5:54 PM,46.4,30.2,53,30.10,10.0,SE,11.5,-,N/A,,Overcast,130,2012-10-30 22:54:00
6:13 PM,44.6,30.2,57,30.10,10.0,SE,10.4,-,N/A,,Overcast,130,2012-10-30 23:13:00
6:34 PM,44.6,30.2,57,30.10,10.0,SE,10.4,-,N/A,,Overcast,140,2012-10-30 23:34:00
6:54 PM,44.6,30.2,57,30.11,10.0,SE,8.1,-,N/A,,Overcast,140,2012-10-30 23:54:00
7:13 PM,42.8,30.2,61,30.10,10.0,SE,8.1,-,N/A,,Overcast,140,2012-10-31 00:13:00
7:34 PM,44.6,32.0,61,30.10,10.0,SE,9.2,-,N/A,,Overcast,130,2012-10-31 00:34:00
7:54 PM,44.6,30.2,57,30.08,10.0,SE,11.5,-,N/A,,Overcast,130,2012-10-31 00:54:00
8:13 PM,44.6,30.2,57,30.08,10.0,SE,10.4,-,N/A,,Overcast,130,2012-10-31 01:13:00
8:34 PM,42.8,30.2,61,30.08,10.0,SE,10.4,-,N/A,,Overcast,130,2012-10-31 01:34:00
8:54 PM,42.8,30.2,61,30.08,10.0,SE,9.2,-,N/A,,Overcast,130,2012-10-31 01:54:00
9:14 PM,42.8,30.2,61,30.08,10.0,SE,8.1,-,N/A,,Overcast,130,2012-10-31 02:14:00
9:34 PM,39.2,30.2,70,30.09,10.0,SE,6.9,-,N/A,,Scattered Clouds,140,2012-10-31 02:34:00
9:54 PM,37.4,30.2,75,30.09,10.0,SE,6.9,-,N/A,,Clear,140,2012-10-31 02:54:00
10:14 PM,37.4,30.2,75,30.09,10.0,SE,9.2,-,N/A,,Clear,130,2012-10-31 03:14:00
10:34 PM,37.4,32.0,81,30.09,10.0,SE,9.2,-,N/A,,Mostly Cloudy,140,2012-10-31 03:34:00
10:54 PM,37.4,32.0,81,30.09,10.0,SSE,5.8,-,N/A,,Mostly Cloudy,150,2012-10-31 03:54:00
11:14 PM,37.4,32.0,81,30.09,10.0,SE,5.8,-,N/A,,Overcast,140,2012-10-31 04:14:00
11:34 PM,37.4,33.8,87,30.08,10.0,SE,6.9,-,N/A,,Overcast,130,2012-10-31 04:34:00
11:54 PM,39.2,33.8,81,30.07,10.0,SE,9.2,-,N/A,,Overcast,130,2012-10-31 04:54:00